Location: Chicago
(41.8500°N, 87.6500°W)
Time: 14:03:51

ISS - Visible Passes

Search period start: 25 October 2016 00:00
Search period end: 04 November 2016 00:00
Orbit: 399 x 408 km, 51.6° (Epoch: 26 October)

Date Brightness Start Highest point End Pass type
(mag) Time Alt. Az. Time Alt. Az. Time Alt. Az.
01 Nov -0.6 06:07:50 10° S 06:10:16 20° SE 06:12:44 10° E visible
02 Nov 0.0 05:17:27 10° SE 05:18:01 10° SE 05:18:35 10° ESE visible
02 Nov -3.3 06:50:43 10° SW 06:53:59 90° NW 06:57:16 10° NE visible
03 Nov -2.4 05:59:17 17° SSW 06:01:32 46° SE 06:04:41 10° ENE visible
